This demonstration page uses our WeatherBlox Daily Observations layout. Learn more.

Left ArrowRight Arrow

Hourly Observations for April 4, 2018

Temp ( °F °C ) Dew Point ( °F °C ) Humidity (%) Winds ( mph kmh ) Pressure ( in mb ) Visibility ( mi km ) Precip ( " mm )
12:53 am 00:53 Clear 19 -7.2 12 -11.1 74 74 N 8 13 30.35 1028 10 16 0.00 0.00
1:53 am 01:53 Clear 17 -8.3 11 -11.7 77 77 N 8 13 30.36 1028 10 16 0.00 0.00
2:53 am 02:53 Clear 17 -8.3 12 -11.1 80 80 NNW 8 13 30.35 1028 10 16 0.00 0.00
3:53 am 03:53 Clear 16 -8.9 11 -11.7 80 80 W 5 7 30.36 1028 10 16 0.00 0.00
4:53 am 04:53 Clear 15 -9.4 12 -11.1 88 88 Calm 30.37 1028 10 16 0.00 0.00
5:53 am 05:53 Clear 16 -8.9 12 -11.1 84 84 Calm 30.35 1028 10 16 0.00 0.00
6:53 am 06:53 Clear 15 -9.4 12 -11.1 88 88 Calm 30.35 1028 10 16 0.00 0.00
7:53 am 07:53 Sunny 17 -8.3 13 -10.6 84 84 SW 3 6 30.36 1028 10 16 0.00 0.00
8:53 am 08:53 Sunny 20 -6.7 13 -10.6 74 74 SSE 6 9 30.33 1027 10 16 0.00 0.00
9:53 am 09:53 Sunny 24 -4.4 15 -9.4 68 68 S 8 13 30.34 1027 10 16 0.00 0.00
10:53 am 10:53 Sunny 28 -2.2 17 -8.3 63 63 S 10 17 30.30 1026 10 16 0.00 0.00
11:53 am 11:53 Sunny 33 0.6 18 -7.8 54 54 S 15 24 30.27 1025 10 16 0.00 0.00
12:53 pm 12:53 Sunny 38 3.3 20 -6.7 48 48 SSE 15 24 30.20 1023 10 16 0.00 0.00
1:53 pm 13:53 Sunny 42 5.6 18 -7.8 38 38 SSW 17 28 30.19 1022 10 16 0.00 0.00
2:53 pm 14:53 Sunny 45 7.2 19 -7.2 35 35 S 18 30 30.14 1021 10 16 0.00 0.00
3:53 pm 15:53 Sunny 50 10 21 -6.1 32 32 S 15 24 30.10 1019 10 16 0.00 0.00
4:53 pm 16:53 Sunny 53 11.7 20 -6.7 27 27 S 12 19 30.07 1018 10 16 0.00 0.00
5:53 pm 17:53 Sunny 54 12.2 21 -6.1 28 28 SSE 14 22 30.03 1017 10 16 0.00 0.00
6:53 pm 18:53 Sunny 55 12.8 20 -6.7 25 25 SSE 14 22 30.01 1016 10 16 0.00 0.00
7:53 pm 19:53 Sunny 50 10 21 -6.1 32 32 SSE 12 19 30.02 1017 10 16 0.00 0.00
8:53 pm 20:53 Mostly Clear 46 7.8 24 -4.4 42 42 SE 12 19 30.04 1017 10 16 0.00 0.00
9:53 pm 21:53 Cloudy 44 6.7 23 -5 43 43 ESE 12 19 30.05 1018 10 16 0.00 0.00
10:53 pm 22:53 Partly Cloudy 41 5 24 -4.4 51 51 SE 15 24 30.04 1017 10 16 0.00 0.00
11:53 pm 23:53 Clear 38 3.3 24 -4.4 57 57 ESE 9 15 30.03 1017 10 16 0.00 0.00

Powered by AerisWeather